DW9584 Weather Reports


time (UTC)temp
C
wind
direction
speed
KPH
gust
KPH
rain 1hr
cm
rain 24hr
cm
rain mn
cm
humidity
%
barometer
mb
20260906211509 24 171 0.0 6.4 0.00 0.00 0.00 58 1015.1
20260906210008 24 148 0.0 4.8 0.00 0.00 0.00 59 1015.1
20260906204508 24 30 0.0 3.2 0.00 0.00 0.00 60 1015.0
20260906203005 25 259 0.0 6.4 0.00 0.00 0.00 58 1014.9
20260906201504 24 11 0.0 3.2 0.00 0.00 0.00 58 1015.1
20260906200010 23 36 0.0 4.8 0.00 0.00 0.00 60 1015.1
20260906194512 24 55 0.0 6.4 0.00 0.00 0.00 60 1015.2
20260906193008 25 8 0.0 9.7 0.00 0.00 0.00 59 1015.2
20260906191512 25 296 0.0 6.4 0.00 0.00 0.00 57 1015.1
20260906190013 25 125 0.0 4.8 0.00 0.00 0.00 57 1015.1
20260906184509 24 5 0.0 4.8 0.00 0.00 0.00 65 1015.3
20260906183018 24 1 0.0 8.0 0.00 0.00 0.00 62 1015.4
20260906181504 24 48 1.6 6.4 0.00 0.00 0.00 61 1015.3
20260906180019 23 59 0.0 6.4 0.00 0.00 0.00 66 1015.7
20260906174525 23 232 0.0 3.2 0.00 0.00 0.00 67 1015.6
20260906173021 23 343 0.0 4.8 0.00 0.00 0.00 66 1015.7
20260906171516 23 280 1.6 4.8 0.00 0.00 0.00 62 1015.6
20260906170016 23 108 0.0 4.8 0.00 0.00 0.00 69 1015.7
20260906164523 24 289 1.6 6.4 0.00 0.00 0.00 61 1015.6
20260906163018 23 99 0.0 8.0 0.00 0.00 0.00 68 1015.8
20260906161506 23 105 0.0 8.0 0.00 0.00 0.00 66 1015.8
20260906160019 23 103 1.6 9.7 0.00 0.00 0.00 66 1015.8
20260906154523 23 298 0.0 8.0 0.00 0.00 0.00 71 1015.8
20260906153018 22 9 1.6 8.0 0.00 0.00 0.00 71 1015.9
20260906151523 22 1 0.0 9.7 0.00 0.00 0.00 71 1015.9
20260906150040 22 9 0.0 6.4 0.00 0.00 0.00 70 1015.8
20260906144518 22 73 0.0 4.8 0.00 0.00 0.00 71 1015.6
20260906143022 22 266 3.2 6.4 0.00 0.00 0.00 74 1015.7
20260906141535 21 71 1.6 6.4 0.00 0.00 0.00 76 1015.6
20260906140025 21 360 0.0 4.8 0.00 0.00 0.00 78 1015.5
20260906134524 20 66 1.6 8.0 0.00 0.00 0.00 77 1015.6
20260906133028 20 15 1.6 6.4 0.00 0.00 0.00 79 1015.4
20260906131529 20 187 0.0 8.0 0.00 0.00 0.00 79 1015.4
20260906130035 19 356 0.0 4.8 0.00 0.00 0.00 80 1015.3
20260906124518 19 20 0.0 8.0 0.00 0.00 0.00 81 1015.3
20260906123015 18 63 0.0 4.8 0.00 0.00 0.00 84 1015.2
20260906121527 18 200 0.0 3.2 0.00 0.00 0.00 86 1015.2
20260906120030 17 270 0.0 6.4 0.00 0.00 0.00 87 1014.9
20260906114537 17 174 0.0 4.8 0.00 0.00 0.00 89 1014.8
20260906113030 16 240 0.0 3.2 0.00 0.00 0.00 90 1014.5
20260906111527 16 240 0.0 3.2 0.00 0.00 0.00 91 1014.4
20260906110038 16 240 0.0 3.2 0.00 0.00 0.00 91 1014.3
20260906104527 16 240 0.0 0.0 0.00 0.00 0.00 91 1014.0
20260906103024 16 240 0.0 3.2 0.00 0.00 0.00 91 1013.9
20260906101518 16 240 0.0 1.6 0.00 0.00 0.00 90 1013.8
20260906100016 16 240 0.0 0.0 0.00 0.00 0.00 90 1013.5
20260906094524 16 240 0.0 1.6 0.00 0.00 0.00 89 1013.4
20260906093010 16 240 0.0 0.0 0.00 0.00 0.00 89 1013.1
20260906091507 16 240 0.0 3.2 0.00 0.00 0.00 89 1013.0
20260906090032 16 240 0.0 3.2 0.00 0.00 0.00 89 1012.7
20260906084534 16 240 0.0 3.2 0.00 0.00 0.00 89 1012.7
20260906083023 16 264 0.0 0.0 0.00 0.00 0.00 89 1012.4
20260906081539 16 265 0.0 3.2 0.00 0.00 0.00 89 1012.4
20260906080018 17 264 0.0 0.0 0.00 0.00 0.00 88 1012.4
20260906074513 17 264 0.0 0.0 0.00 0.00 0.00 88 1012.4
20260906073012 17 264 0.0 0.0 0.00 0.00 0.00 87 1012.3
20260906071531 17 265 0.0 0.0 0.00 0.00 0.00 87 1012.5
20260906070032 17 265 0.0 0.0 0.00 0.00 0.00 87 1012.3
20260906064530 17 265 0.0 0.0 0.00 0.00 0.00 87 1012.4
20260906063031 17 265 0.0 0.0 0.00 0.00 0.00 87 1012.5
20260906061534 17 264 0.0 0.0 0.00 0.00 0.00 86 1012.5
20260906060023 17 264 0.0 0.0 0.00 0.00 0.00 86 1012.7
20260906054520 17 264 0.0 3.2 0.00 0.00 0.00 87 1012.7
20260906053017 17 264 0.0 0.0 0.00 0.00 0.00 88 1012.8
20260906051532 17 264 0.0 0.0 0.00 0.00 0.00 88 1012.9
20260906050033 17 264 0.0 0.0 0.00 0.00 0.00 88 1012.9
20260906044535 17 264 0.0 0.0 0.00 0.00 0.00 88 1012.9
20260906043029 17 264 0.0 0.0 0.00 0.00 0.00 88 1012.9
20260906041528 17 264 0.0 0.0 0.00 0.00 0.00 87 1012.9
20260906040033 18 265 0.0 0.0 0.00 0.03 0.00 87 1012.9
20260906034524 18 264 0.0 0.0 0.00 0.05 0.03 86 1012.8
20260906033019 18 264 0.0 0.0 0.00 0.30 0.03 85 1012.9
20260906031531 18 265 0.0 0.0 0.00 0.30 0.03 83 1012.8
20260906030011 18 265 0.0 0.0 0.00 0.30 0.03 83 1012.7
20260906024508 18 265 0.0 0.0 0.00 0.30 0.03 83 1012.7
20260906023005 18 264 0.0 0.0 0.00 0.30 0.03 82 1012.7
20260906021505 19 265 0.0 0.0 0.00 0.30 0.03 81 1012.6
20260906020031 19 265 0.0 0.0 0.00 0.30 0.03 81 1012.5
20260906014529 18 265 0.0 0.0 0.00 0.30 0.03 82 1012.4
20260906013036 18 265 0.0 0.0 0.00 0.30 0.03 82 1012.3
20260906011516 19 264 0.0 0.0 0.00 0.30 0.03 81 1012.1
20260906010013 19 264 0.0 0.0 0.00 0.30 0.03 79 1012.0
20260906004512 20 264 0.0 0.0 0.00 0.30 0.03 78 1011.9
20260906003008 20 264 0.0 0.0 0.00 0.30 0.03 77 1011.8
20260906001533 20 265 0.0 0.0 0.00 0.30 0.03 77 1011.6
20260906000030 21 265 0.0 0.0 0.00 0.30 0.03 76 1011.5
20260905234524 21 265 0.0 0.0 0.00 0.30 0.03 72 1011.3
20260905233030 22 265 0.0 0.0 0.00 0.30 0.03 67 1011.1
20260905231518 22 264 0.0 0.0 0.00 0.30 0.03 67 1011.1
20260905230018 23 248 0.0 3.2 0.00 0.30 0.03 63 1011.0
20260905224512 23 243 0.0 1.6 0.00 0.30 0.03 62 1011.0
20260905223028 23 197 0.0 3.2 0.00 0.30 0.03 63 1010.9
20260905221542 24 176 0.0 3.2 0.00 0.30 0.03 59 1010.8
20260905220030 25 268 1.6 8.0 0.00 0.30 0.03 55 1010.6
20260905214528 25 300 0.0 9.7 0.00 0.30 0.03 51 1010.6
20260905213028 25 30 1.6 6.4 0.00 0.30 0.03 55 1010.5